Location: Bergnershof
(48.9468°N, 10.9431°E)
Time: 22:19:55
(UTC+00:00)

ERBS - Pass Details

Date: 03 March 2021
Orbit: 408 x 412 km, 57.0° (Epoch: 13 April)

Event Time Altitude Azimuth Distance (km) Brightness Sun altitude
Rises 18:56:59 0° 270° (W) 2,351 7.5 -19.4°
Reaches altitude 10° 18:59:17 10° 283° (WNW) 1,489 6.3 -19.8°
Maximum altitude 19:02:09 26° 343° (NNW) 847 4.1 -20.2°
Enters shadow 19:03:04 23° 11° (N) 931 4.0 -20.4°
